Location: Davidschlag
(48.4333°N, 14.2833°E)
Time: 20:53:08
(UTC+00:00)

Cosmos 1939 Rocket - Pass Details

Date: 27 February 2020
Orbit: 532 x 585 km, 97.4° (Epoch: 07 April)

Event Time Altitude Azimuth Distance (km) Brightness Sun altitude
Rises 17:28:20 0° 162° (SSE) 2,797 6.3 -8.3°
Reaches altitude 10° 17:30:29 10° 162° (SSE) 1,904 5.4 -8.7°
Maximum altitude 17:34:37 80° 76° (ENE) 601 2.9 -9.4°
Drops below altitude 10° 17:38:47 10° 349° (N) 1,916 5.7 -10.1°
Sets 17:40:57 0° 349° (NNW) 2,818 6.6 -10.4°
